Hors Challenge

Les Jogging Et Trail De Sart-Messire-Guillaume - Court-Saint-Etienne (13.00 km)

samedi 07 septembre 2019

Vous pouvez trouver Le classement original sur : www.otopservices.be  
 
LES JOGGING ET TRAIL DE SART-MESSIRE-GUILLAUME - COURT-SAINT-ETIENNE
DISTANCE : 12.98 km
samedi 07 septembre 2019
 
Place dos NOM Catégorie Pl/cat temps temps/km Vitesse
01:00:00              
1 2121 VINCENT DELMEZ SENIOR H 1 00:48:04 03:42 16.20
2 2097 BERNARD SIMONET VÉTÉRAN 2 1 00:51:48 03:59 15.03
3 2045 TANGUY FONTAINE SENIOR H 2 00:55:32 04:17 14.02
4 2067 NICOLAS PIRMEZ SENIOR H 3 00:56:16 04:20 13.84
5 2095 MICHAEL SECHEHAYE VETERAN 1 1 00:56:31 04:21 13.78
6 2075 JEAN-PAUL STORM VÉTÉRAN 2 2 00:58:42 04:31 13.27
7 2104 ANTOINE PIRENNE SENIOR H 4 00:59:23 04:35 13.11
8 2159 LAURENT DEPOTTER VETERAN 1 2 00:59:45 04:36 13.03
9 2078 MEDERIC VAN GENECHTEN SENIOR H 5 00:59:53 04:37 13.00
10 2043 RÉMY FABRY SENIOR H 6 01:00:51 04:41 12.80
11 2111 RAPHAEL SALENGROS SENIOR H 7 01:01:18 04:43 12.70
12 2059 OLIVIER MASSART VÉTÉRAN 2 3 01:02:18 04:48 12.50
13 2058 THOMAS MAERTEN SENIOR H 8 01:03:54 04:55 12.19
14 2153 BENOIT DOCQUIER SENIOR H 9 01:03:56 04:56 12.18
15 2127 BERTRAND VANEGHEM VETERAN 1 3 01:04:10 04:57 12.14
16 2132 LUC CADET VÉTÉRAN 2 4 01:04:31 04:58 12.07
17 2089 ROMAIN ROLAND SENIOR H 10 01:04:50 05:00 12.01
18 2161 SANS PRENOM SANS NOM VÉTÉRAN 2 5 01:05:52 05:05 11.82
19 2042 ETIENNE EVRARD VETERAN 1 4 01:06:17 05:06 11.75
20 2145 REMY VERRUE VETERAN 1 5 01:06:30 05:07 11.71
21 2163 NICOLAS HEUSICOM SENIOR H 11 01:06:41 05:08 11.68
22 2129 CORENTIN HERICHER SENIOR H 12 01:06:48 05:09 11.66
23 2092 LUDOVIC GILLES SENIOR H 13 01:07:31 05:12 11.53
24 2034 CHARLES DELAERE SENIOR H 14 01:08:41 05:18 11.34
25 2131 MARTIN NAVEAU SENIOR H 15 01:08:49 05:18 11.32
26 2130 SANDRO GONZALES SENIOR H 16 01:08:49 05:18 11.32
27 2071 PASCALE PLANTIN-CARRENAR AINÉE 1 1 01:08:54 05:19 11.30
28 2142 MICHAEL GENET VÉTÉRAN 2 6 01:09:06 05:19 11.27
29 2141 PIERRE VANRIE VÉTÉRAN 2 7 01:09:31 05:21 11.20
30 2160 YVES NETENS VÉTÉRAN 2 8 01:10:23 05:25 11.06
31 2139 RAYNALD BONTEMPS VETERAN 1 6 01:10:32 05:26 11.04
32 2124 SEBASTIEN ROUSSEAU VETERAN 1 7 01:11:03 05:28 10.96
33 2039 JEAN DOCQUIER SENIOR H 17 01:11:28 05:30 10.90
34 2062 JEAN-FRANCOIS MOURMAUX VETERAN 3 1 01:11:29 05:30 10.89
35 2094 KEVIN GOOSSE SENIOR H 18 01:12:13 05:34 10.78
36 2110 CHRISTOPHE LAMBERT VETERAN 1 8 01:12:19 05:34 10.77
37 2098 KARINE PARMENTIER AINÉE 2 1 01:12:19 05:34 10.77
38 2033 BENOIT DEGODEZ VETERAN 1 9 01:12:50 05:37 10.69
39 2138 BENJAMIN VAN HOVE XXX   01:13:03 05:38 10.66
40 2036 AUDREY DERUMIER SENIOR D 1 01:13:37 05:40 10.58
41 2086 JULIEN VERGNANI SENIOR H 19 01:13:44 05:41 10.56
42 2143 LODIA PERZYNA AINÉE 1 2 01:13:49 05:41 10.55
43 2074 XAVIER STAS VETERAN 1 10 01:14:27 05:44 10.46
44 2090 NICOLAS CLEMENT SENIOR H 20 01:14:47 05:46 10.41
45 2119 BRUNO KINARD VETERAN 1 11 01:14:49 05:46 10.41
46 2091 CHRISTIAN COOLS VETERAN 3 2 01:15:33 05:49 10.31
47 2069 BRUNO PLANTIN-CARRENAR VÉTÉRAN 2 9 01:15:38 05:50 10.30
48 2024 PIERRE-YVES CORNÉLIS VÉTÉRAN 2 10 01:15:40 05:50 10.29
49 2093 MARC VANCALCK VETERAN 1 12 01:15:44 05:50 10.28
50 2084 FREDERIC VANHUFFELEN VETERAN 1 13 01:15:47 05:50 10.28
51 2063 LAURENT PAQUOT SENIOR H 21 01:16:11 05:52 10.22
52 2051 JACQUES GRAYE VÉTÉRAN 2 11 01:17:23 05:58 10.06
53 2027 SIMON DE ROO SENIOR H 22 01:17:35 05:59 10.04
54 2073 SAMI RAFRAFI SENIOR H 23 01:18:04 06:01 9.97
55 2154 DAVID FORET VETERAN 1 14 01:18:15 06:02 9.95
56 2076 EMELINE TIHON SENIOR D 2 01:18:20 06:02 9.94
57 2150 JONATHAN VYGEN SENIOR H 24 01:18:29 06:03 9.92
58 2088 PIERRICK WALRAVENS SENIOR H 25 01:18:35 06:03 9.91
59 2120 ARNAUD GARRIC SENIOR H 26 01:18:42 06:04 9.89
60 2125 BERTRAND VAN OLDENEEL VÉTÉRAN 2 12 01:19:23 06:07 9.81
61 2156 GIORGIOS NICOLOUDIS VETERAN 1 15 01:20:10 06:11 9.71
62 2046 FRÉDÉRIQUE FRANÇOIS AINÉE 1 3 01:20:32 06:12 9.67
63 2003 AUDE ARCQ SENIOR D 3 01:20:37 06:13 9.66
64 2117 MAX WILMOTTE SENIOR H 27 01:20:46 06:13 9.64
65 2155 VERONIQUE BOISSON SENIOR D 4 01:21:07 06:15 9.60
66 2107 YVES BODSON VETERAN 3 3 01:21:10 06:15 9.59
67 2096 PHILIPPE FLAMENT VÉTÉRAN 2 13 01:21:50 06:18 9.52
68 2100 JEAN-MARC STEFANO VÉTÉRAN 2 14 01:21:57 06:19 9.50
69 2162 LAURENCE NAVET AINÉE 2 2 01:21:59 06:19 9.50
70 2137 DAVID HEENEN VETERAN 1 16 01:22:05 06:19 9.49
71 2081 SOPHIE VANDEWEERD AINÉE 1 4 01:22:08 06:20 9.48
72 2135 LAURENT VREVEN VÉTÉRAN 2 15 01:22:48 06:23 9.40
73 2109 MARC BOUCHER VETERAN 3 4 01:22:58 06:24 9.39
74 2023 MARC CHRISTOPH VETERAN 1 17 01:23:05 06:24 9.37
75 2101 STEPHANIE HOTVA SENIOR D 5 01:23:44 06:27 9.30
76 2116 VALERIE VAN POUCKE AINÉE 1 5 01:23:45 06:27 9.30
77 2122 ANAIS FOBE SENIOR D 6 01:23:45 06:27 9.30
78 2158 VIRGINIE MORLOT SENIOR D 7 01:24:20 06:30 9.23
79 2072 JOCELYNE POSTI AINÉE 3 1 01:25:23 06:35 9.12
80 2168 SEBASTIEN QUITIN SENIOR H 28 01:26:11 06:38 9.04
81 2085 MANON VERBEEREN SENIOR D 8 01:26:12 06:39 9.03
82 2115 PHILIPPE TOUSSAINT VETERAN 1 18 01:26:14 06:39 9.03
83 2151 PIERRE REVERS VÉTÉRAN 2 16 01:26:55 06:42 8.96
84 2148 MARIANNE MIGNON AINÉE 2 3 01:27:11 06:43 8.93
85 2030 BENOIT DE SMEDT VETERAN 1 19 01:27:38 06:45 8.89
86 2103 CAROLINE MATHIEU AINÉE 1 6 01:27:41 06:45 8.88
87 2157 MARC VINCENT VÉTÉRAN 2 17 01:27:41 06:45 8.88
88 2012 MARGAUX BOXHO SENIOR D 9 01:27:45 06:46 8.87
89 2164 JONATHAN SARTEEL SENIOR H 29 01:27:48 06:46 8.87
90 2165 ARNAUD LENNERS VETERAN 1 20 01:27:56 06:47 8.86
91 2167 NICOLAS ROSEWICH SENIOR H 30 01:27:56 06:47 8.86
92 2144 CHRISTINE PERPETTE AINÉE 2 4 01:27:57 06:47 8.85
93 2133 BENOIT HANSET VÉTÉRAN 2 18 01:27:58 06:47 8.85
94 2004 CLAIRE BODEUX AINÉE 2 5 01:27:59 06:47 8.85
95 2106 JOHANNE ANDRE SENIOR D 10 01:28:17 06:48 8.82
96 2005 SYLVIE BORREMANS AINÉE 1 7 01:28:26 06:49 8.81
97 2102 PIERRE THIEREN VÉTÉRAN 4 1 01:29:13 06:52 8.73
98 2001 SEBASTIEN ALAIME VETERAN 1 21 01:30:14 06:57 8.63
99 2025 CAROLE DARDENNE AINÉE 1 8 01:30:14 06:57 8.63
100 2040 CHRISTEL DUFOUR AINÉE 1 9 01:33:14 07:11 8.35
101 2134 VERONIQUE CHARLIER AINÉE 2 6 01:33:31 07:12 8.33
102 2048 ANNE FREMY AINÉE 3 2 01:33:31 07:12 8.33
103 2052 BERNA HOET AINÉE 3 3 01:33:31 07:12 8.33
104 2136 AURÉLIE GUERMONPREZ AINÉE 1 10 01:33:41 07:13 8.31
105 2112 NICOLAS DE COMMER SENIOR H 31 01:37:36 07:31 7.98
106 2118 ALAIN BURNY VETERAN 3 5 01:38:28 07:35 7.91